| time (UTC) | temp C | wind direction | speed KPH | gust KPH | rain 1hr cm | rain 24hr cm | rain mn cm | humidity % | barometer mb |
| 20260506195933 | 19 | 339 | 6.4 | 9.7 | 0.00 | 0.00 | 0.00 | 82 | 1011.9 |
| 20260506195430 | 19 | 66 | 0.0 | 0.0 | 0.00 | 0.00 | 0.00 | 83 | 1011.9 |
| 20260506194927 | 19 | 61 | 3.2 | 3.2 | 0.00 | 0.00 | 0.00 | 83 | 1012.0 |
| 20260506194424 | 20 | 17 | 8.0 | 14.5 | 0.00 | 0.00 | 0.00 | 83 | 1012.0 |
| 20260506193921 | 20 | 136 | 0.0 | 3.2 | 0.00 | 0.00 | 0.00 | 83 | 1012.0 |
| 20260506193418 | 20 | 44 | 3.2 | 12.9 | 0.00 | 0.00 | 0.00 | 82 | 1011.9 |
| 20260506192914 | 20 | 32 | 8.0 | 12.9 | 0.00 | 0.00 | 0.00 | 82 | 1011.6 |
| 20260506192411 | 20 | 32 | 6.4 | 9.7 | 0.00 | 0.00 | 0.00 | 82 | 1012.0 |
| 20260506191908 | 21 | 27 | 6.4 | 8.0 | 0.00 | 0.00 | 0.00 | 81 | 1012.1 |
| 20260506191404 | 21 | 36 | 6.4 | 9.7 | 0.00 | 0.00 | 0.00 | 81 | 1012.0 |
| 20260506190901 | 21 | 16 | 11.3 | 14.5 | 0.00 | 0.00 | 0.00 | 80 | 1011.8 |
| 20260506190357 | 21 | 33 | 3.2 | 4.8 | 0.00 | 0.00 | 0.00 | 81 | 1011.9 |
| 20260506185854 | 21 | 104 | 1.6 | 3.2 | 0.00 | 0.00 | 0.00 | 81 | 1011.9 |
| 20260506185351 | 22 | 340 | 8.0 | 12.9 | 0.00 | 0.00 | 0.00 | 80 | 1011.8 |
| 20260506184848 | 22 | 51 | 3.2 | 4.8 | 0.00 | 0.00 | 0.00 | 80 | 1011.5 |
| 20260506184345 | 22 | 75 | 0.0 | 0.0 | 0.00 | 0.00 | 0.00 | 81 | 1011.9 |
| 20260506183843 | 22 | 32 | 4.8 | 8.0 | 0.00 | 0.00 | 0.00 | 80 | 1011.8 |
| 20260506183338 | 22 | 54 | 3.2 | 4.8 | 0.00 | 0.00 | 0.00 | 80 | 1011.7 |
| 20260506182836 | 22 | 17 | 3.2 | 8.0 | 0.00 | 0.00 | 0.00 | 81 | 1011.7 |
| 20260506182333 | 22 | 345 | 4.8 | 4.8 | 0.00 | 0.00 | 0.00 | 81 | 1011.6 |
| 20260506181830 | 21 | 38 | 4.8 | 9.7 | 0.00 | 0.00 | 0.00 | 82 | 1011.5 |
| 20260506181328 | 21 | 32 | 1.6 | 3.2 | 0.00 | 0.00 | 0.00 | 80 | 1011.6 |
| 20260506180825 | 22 | 68 | 0.0 | 0.0 | 0.00 | 0.00 | 0.00 | 80 | 1011.4 |
| 20260506180321 | 21 | 87 | 0.0 | 0.0 | 0.00 | 0.00 | 0.00 | 81 | 1011.5 |
| 20260506175817 | 21 | 78 | 0.0 | 0.0 | 0.00 | 0.00 | 0.00 | 81 | 1011.3 |
| 20260506175314 | 21 | 83 | 4.8 | 4.8 | 0.00 | 0.00 | 0.00 | 82 | 1011.5 |
| 20260506174806 | 21 | 75 | 0.0 | 3.2 | 0.00 | 0.00 | 0.00 | 82 | 1011.6 |
| 20260506174303 | 21 | 73 | 1.6 | 3.2 | 0.00 | 0.00 | 0.00 | 80 | 1011.6 |
| 20260506173800 | 21 | 155 | 4.8 | 4.8 | 0.00 | 0.00 | 0.00 | 81 | 1011.6 |
| 20260506173257 | 20 | 102 | 3.2 | 4.8 | 0.00 | 0.00 | 0.00 | 81 | 1011.5 |
| 20260506172754 | 20 | 131 | 0.0 | 3.2 | 0.00 | 0.00 | 0.00 | 82 | 1011.5 |
| 20260506172251 | 19 | 80 | 1.6 | 3.2 | 0.00 | 0.00 | 0.00 | 83 | 1011.6 |
| 20260506171748 | 19 | 38 | 1.6 | 3.2 | 0.00 | 0.00 | 0.00 | 84 | 1011.6 |
| 20260506171245 | 19 | 43 | 3.2 | 3.2 | 0.00 | 0.00 | 0.00 | 83 | 1011.7 |
| 20260506170743 | 18 | 80 | 1.6 | 3.2 | 0.00 | 0.00 | 0.00 | 84 | 1011.8 |
| 20260506170239 | 18 | 82 | 0.0 | 3.2 | 0.00 | 0.00 | 0.00 | 84 | 1012.1 |
| 20260506165738 | 18 | 36 | 3.2 | 4.8 | 0.00 | 0.00 | 0.00 | 85 | 1012.2 |
| 20260506165234 | 18 | 97 | 0.0 | 0.0 | 0.00 | 0.00 | 0.00 | 87 | 1012.5 |
| 20260506164731 | 17 | 160 | 4.8 | 8.0 | 0.00 | 0.00 | 0.00 | 88 | 1012.7 |
| 20260506164228 | 17 | 162 | 3.2 | 4.8 | 0.00 | 0.00 | 0.00 | 89 | 1012.6 |
| 20260506163725 | 16 | 77 | 1.6 | 3.2 | 0.00 | 0.00 | 0.00 | 91 | 1012.3 |
| 20260506163220 | 16 | 89 | 0.0 | 0.0 | 0.00 | 0.00 | 0.00 | 95 | 1012.2 |
| 20260506162716 | 15 | 76 | 3.2 | 4.8 | 0.00 | 0.00 | 0.00 | 96 | 1013.0 |
| 20260506162214 | 15 | 71 | 0.0 | 0.0 | 0.00 | 0.00 | 0.00 | 96 | 1013.4 |
| 20260506161711 | 15 | 36 | 0.0 | 3.2 | 0.00 | 0.00 | 0.00 | 96 | 1014.0 |
| 20260506161208 | 15 | 72 | 4.8 | 4.8 | 0.00 | 0.00 | 0.00 | 95 | 1013.6 |
| 20260506160706 | 15 | 59 | 3.2 | 4.8 | 0.00 | 0.00 | 0.00 | 95 | 1013.5 |
| 20260506160202 | 15 | 22 | 6.4 | 12.9 | 0.00 | 0.00 | 0.00 | 95 | 1013.6 |
| 20260506155701 | 16 | 80 | 6.4 | 8.0 | 0.00 | 0.00 | 0.00 | 94 | 1014.0 |
| 20260506155158 | 16 | 25 | 11.3 | 17.7 | 0.00 | 0.00 | 0.00 | 94 | 1013.6 |
| 20260506153305 | 17 | 11 | 6.4 | 9.7 | 0.00 | 0.00 | 0.00 | 94 | 1012.9 |
| 20260506152802 | 17 | 55 | 3.2 | 3.2 | 0.00 | 0.00 | 0.00 | 94 | 1012.5 |
| 20260506152259 | 17 | 67 | 4.8 | 8.0 | 0.00 | 0.00 | 0.00 | 94 | 1012.0 |
| 20260506151758 | 17 | 30 | 4.8 | 9.7 | 0.00 | 0.00 | 0.00 | 95 | 1012.2 |
| 20260506151254 | 17 | 29 | 4.8 | 8.0 | 0.00 | 0.00 | 0.00 | 94 | 1012.1 |
| 20260506150751 | 18 | 77 | 4.8 | 8.0 | 0.00 | 0.00 | 0.00 | 94 | 1011.8 |
| 20260506150248 | 18 | 85 | 4.8 | 8.0 | 0.00 | 0.00 | 0.00 | 93 | 1011.7 |
| 20260506145745 | 19 | 22 | 4.8 | 8.0 | 0.00 | 0.00 | 0.00 | 92 | 1011.7 |
| 20260506145241 | 20 | 13 | 4.8 | 8.0 | 0.00 | 0.00 | 0.00 | 89 | 1011.2 |
| 20260506144739 | 22 | 60 | 1.6 | 4.8 | 0.00 | 0.00 | 0.00 | 87 | 1011.1 |
| 20260506144236 | 25 | 31 | 3.2 | 8.0 | 0.00 | 0.00 | 0.00 | 87 | 1011.2 |
| 20260506143733 | 25 | 135 | 3.2 | 4.8 | 0.00 | 0.00 | 0.00 | 90 | 1010.2 |
| 20260506143231 | 25 | 146 | 3.2 | 4.8 | 0.00 | 0.00 | 0.00 | 91 | 1010.0 |
| 20260506142729 | 25 | 99 | 1.6 | 3.2 | 0.00 | 0.00 | 0.00 | 91 | 1010.1 |
| 20260506142227 | 25 | 124 | 1.6 | 3.2 | 0.00 | 0.00 | 0.00 | 91 | 1010.2 |
| 20260506141725 | 25 | 138 | 1.6 | 3.2 | 0.00 | 0.00 | 0.00 | 92 | 1010.1 |
| 20260506141223 | 25 | 93 | 0.0 | 3.2 | 0.00 | 0.00 | 0.00 | 92 | 1010.1 |
| 20260506140720 | 25 | 96 | 1.6 | 3.2 | 0.00 | 0.00 | 0.00 | 93 | 1010.2 |
| 20260506140217 | 25 | 131 | 0.0 | 0.0 | 0.00 | 0.00 | 0.00 | 93 | 1010.5 |
| 20260506135713 | 25 | 105 | 0.0 | 0.0 | 0.00 | 0.00 | 0.00 | 94 | 1010.2 |
| 20260506135210 | 25 | 107 | 0.0 | 0.0 | 0.00 | 0.00 | 0.00 | 94 | 1009.9 |
| 20260506134707 | 24 | 100 | 0.0 | 0.0 | 0.00 | 0.00 | 0.00 | 95 | 1009.9 |
| 20260506134203 | 24 | 100 | 0.0 | 0.0 | 0.00 | 0.00 | 0.00 | 95 | 1010.0 |
| 20260506133700 | 24 | 100 | 0.0 | 0.0 | 0.00 | 0.00 | 0.00 | 95 | 1009.9 |
| 20260506133157 | 24 | 101 | 0.0 | 3.2 | 0.00 | 0.00 | 0.00 | 95 | 1009.7 |
| 20260506132654 | 24 | 99 | 0.0 | 0.0 | 0.00 | 0.00 | 0.00 | 95 | 1009.5 |
| 20260506132151 | 23 | 98 | 0.0 | 0.0 | 0.00 | 0.00 | 0.00 | 96 | 1009.7 |
| 20260506131649 | 23 | 112 | 1.6 | 3.2 | 0.00 | 0.00 | 0.00 | 96 | 1009.8 |
| 20260506131144 | 23 | 80 | 1.6 | 3.2 | 0.00 | 0.00 | 0.00 | 97 | 1009.8 |
| 20260506130641 | 23 | 117 | 0.0 | 0.0 | 0.00 | 0.00 | 0.00 | 97 | 1009.6 |
| 20260506130139 | 23 | 100 | 0.0 | 3.2 | 0.00 | 0.00 | 0.00 | 97 | 1009.6 |
| 20260506125637 | 23 | 102 | 0.0 | 0.0 | 0.00 | 0.00 | 0.00 | 97 | 1009.6 |
| 20260506125134 | 23 | 98 | 0.0 | 0.0 | 0.00 | 0.00 | 0.00 | 97 | 1009.6 |
| 20260506124632 | 23 | 105 | 0.0 | 0.0 | 0.00 | 0.00 | 0.00 | 97 | 1009.7 |
| 20260506124130 | 23 | 102 | 0.0 | 0.0 | 0.00 | 0.00 | 0.00 | 97 | 1009.5 |
| 20260506123627 | 23 | 100 | 0.0 | 0.0 | 0.00 | 0.00 | 0.00 | 97 | 1009.4 |
| 20260506123126 | 23 | 84 | 0.0 | 0.0 | 0.00 | 0.00 | 0.00 | 97 | 1009.3 |
| 20260506122622 | 23 | 105 | 0.0 | 0.0 | 0.00 | 0.00 | 0.00 | 97 | 1009.4 |
| 20260506122120 | 23 | 100 | 0.0 | 0.0 | 0.00 | 0.00 | 0.00 | 97 | 1009.3 |
| 20260506121617 | 23 | 101 | 0.0 | 0.0 | 0.00 | 0.00 | 0.00 | 97 | 1009.3 |
| 20260506121114 | 23 | 107 | 0.0 | 0.0 | 0.00 | 0.00 | 0.00 | 97 | 1009.5 |
| 20260506120612 | 23 | 97 | 0.0 | 0.0 | 0.00 | 0.00 | 0.00 | 97 | 1009.2 |
| 20260506120109 | 23 | 129 | 1.6 | 3.2 | 0.00 | 0.00 | 0.00 | 96 | 1009.3 |
| 20260506115607 | 23 | 113 | 0.0 | 0.0 | 0.00 | 0.00 | 0.00 | 96 | 1009.0 |
| 20260506115105 | 23 | 99 | 0.0 | 0.0 | 0.00 | 0.00 | 0.00 | 96 | 1009.1 |
| 20260506114602 | 23 | 126 | 1.6 | 3.2 | 0.00 | 0.00 | 0.00 | 96 | 1009.1 |
| 20260506114100 | 23 | 139 | 0.0 | 0.0 | 0.00 | 0.00 | 0.00 | 96 | 1009.3 |
| 20260506113558 | 23 | 99 | 0.0 | 0.0 | 0.00 | 0.00 | 0.00 | 96 | 1009.3 |
| 20260506113055 | 23 | 97 | 0.0 | 0.0 | 0.00 | 0.00 | 0.00 | 96 | 1009.2 |
| 20260506112551 | 23 | 116 | 0.0 | 0.0 | 0.00 | 0.00 | 0.00 | 96 | 1009.5 |
| 20260506112049 | 23 | 103 | 0.0 | 0.0 | 0.00 | 0.00 | 0.00 | 96 | 1009.2 |
| 20260506111547 | 23 | 123 | 3.2 | 4.8 | 0.00 | 0.00 | 0.00 | 96 | 1009.3 |
| 20260506111043 | 23 | 90 | 0.0 | 0.0 | 0.00 | 0.00 | 0.00 | 95 | 1009.3 |
| 20260506110541 | 23 | 101 | 1.6 | 3.2 | 0.00 | 0.00 | 0.00 | 96 | 1009.2 |
| 20260506110038 | 23 | 101 | 0.0 | 0.0 | 0.00 | 0.00 | 0.00 | 96 | 1009.3 |
| 20260506105534 | 23 | 100 | 0.0 | 0.0 | 0.00 | 0.00 | 0.00 | 96 | 1009.4 |
| 20260506105032 | 23 | 87 | 1.6 | 3.2 | 0.00 | 0.00 | 0.00 | 96 | 1008.9 |
| 20260506104530 | 23 | 104 | 0.0 | 0.0 | 0.00 | 0.00 | 0.00 | 97 | 1008.8 |
| 20260506104027 | 23 | 106 | 1.6 | 3.2 | 0.00 | 0.00 | 0.00 | 97 | 1008.6 |
| 20260506103524 | 23 | 104 | 0.0 | 0.0 | 0.00 | 0.00 | 0.00 | 97 | 1008.8 |
| 20260506103021 | 23 | 111 | 0.0 | 0.0 | 0.00 | 0.00 | 0.00 | 97 | 1008.8 |
| 20260506102520 | 23 | 112 | 0.0 | 0.0 | 0.00 | 0.00 | 0.00 | 97 | 1008.9 |
| 20260506102016 | 23 | 182 | 3.2 | 4.8 | 0.00 | 0.00 | 0.00 | 96 | 1008.6 |
| 20260506101513 | 23 | 140 | 1.6 | 3.2 | 0.00 | 0.00 | 0.00 | 96 | 1008.6 |
| 20260506101010 | 23 | 102 | 0.0 | 0.0 | 0.00 | 0.00 | 0.00 | 96 | 1008.6 |
| 20260506100509 | 23 | 103 | 0.0 | 0.0 | 0.00 | 0.00 | 0.00 | 96 | 1008.9 |
| 20260506100007 | 23 | 101 | 0.0 | 0.0 | 0.00 | 0.00 | 0.00 | 96 | 1008.6 |
| 20260506095505 | 23 | 173 | 3.2 | 4.8 | 0.00 | 0.00 | 0.00 | 96 | 1008.3 |
| 20260506095000 | 23 | 97 | 0.0 | 0.0 | 0.00 | 0.00 | 0.00 | 96 | 1008.6 |
| 20260506094459 | 23 | 108 | 0.0 | 0.0 | 0.00 | 0.00 | 0.00 | 96 | 1008.5 |
| 20260506093956 | 23 | 100 | 0.0 | 0.0 | 0.00 | 0.00 | 0.00 | 96 | 1008.5 |
| 20260506093454 | 23 | 91 | 0.0 | 0.0 | 0.00 | 0.00 | 0.00 | 96 | 1008.4 |
| 20260506092952 | 23 | 97 | 0.0 | 0.0 | 0.00 | 0.00 | 0.00 | 96 | 1008.2 |
| 20260506092449 | 23 | 105 | 0.0 | 0.0 | 0.00 | 0.00 | 0.00 | 96 | 1008.3 |
| 20260506091945 | 23 | 104 | 0.0 | 0.0 | 0.00 | 0.00 | 0.00 | 96 | 1008.1 |
| 20260506091444 | 23 | 102 | 1.6 | 3.2 | 0.00 | 0.00 | 0.00 | 96 | 1008.2 |
| 20260506090941 | 23 | 148 | 0.0 | 0.0 | 0.00 | 0.00 | 0.00 | 96 | 1007.9 |
| 20260506090439 | 23 | 106 | 0.0 | 3.2 | 0.00 | 0.00 | 0.00 | 96 | 1008.2 |
| 20260506085935 | 23 | 101 | 0.0 | 0.0 | 0.00 | 0.00 | 0.00 | 96 | 1008.2 |
| 20260506085432 | 23 | 108 | 0.0 | 0.0 | 0.00 | 0.00 | 0.00 | 96 | 1008.1 |
| 20260506084928 | 23 | 107 | 0.0 | 0.0 | 0.00 | 0.00 | 0.00 | 96 | 1008.4 |
| 20260506084425 | 23 | 103 | 0.0 | 0.0 | 0.00 | 0.00 | 0.00 | 96 | 1008.3 |
| 20260506083921 | 23 | 104 | 0.0 | 0.0 | 0.00 | 0.00 | 0.00 | 96 | 1008.2 |
| 20260506083419 | 23 | 108 | 0.0 | 0.0 | 0.00 | 0.00 | 0.00 | 96 | 1008.1 |
| 20260506082916 | 23 | 100 | 0.0 | 0.0 | 0.00 | 0.00 | 0.00 | 96 | 1008.0 |
| 20260506082413 | 23 | 175 | 3.2 | 3.2 | 0.00 | 0.00 | 0.00 | 96 | 1008.3 |
| 20260506081908 | 23 | 179 | 4.8 | 4.8 | 0.00 | 0.00 | 0.00 | 96 | 1008.0 |
| 20260506081407 | 23 | 128 | 1.6 | 3.2 | 0.00 | 0.00 | 0.00 | 96 | 1007.8 |
| 20260506080904 | 23 | 181 | 1.6 | 3.2 | 0.00 | 0.00 | 0.00 | 96 | 1007.9 |
| 20260506080400 | 23 | 22 | 1.6 | 3.2 | 0.00 | 0.00 | 0.00 | 96 | 1007.9 |
| 20260506073344 | 23 | 146 | 1.6 | 3.2 | 0.00 | 0.00 | 0.00 | 95 | 1008.1 |
| 20260506072841 | 23 | 73 | 3.2 | 4.8 | 0.00 | 0.00 | 0.00 | 95 | 1008.2 |
| 20260506072339 | 23 | 142 | 0.0 | 0.0 | 0.00 | 0.00 | 0.00 | 95 | 1007.9 |
| 20260506071837 | 23 | 207 | 6.4 | 14.5 | 0.00 | 0.00 | 0.00 | 95 | 1008.4 |
| 20260506071335 | 23 | 234 | 4.8 | 4.8 | 0.00 | 0.00 | 0.00 | 95 | 1008.4 |
| 20260506070831 | 23 | 200 | 0.0 | 3.2 | 0.00 | 0.00 | 0.00 | 95 | 1008.0 |
| 20260506070328 | 23 | 123 | 3.2 | 4.8 | 0.00 | 0.00 | 0.00 | 95 | 1008.0 |
| 20260506062300 | 23 | 60 | 8.0 | 9.7 | 0.00 | 0.00 | 0.00 | 95 | 1008.2 |
| 20260506061756 | 23 | 125 | 0.0 | 0.0 | 0.00 | 0.00 | 0.00 | 95 | 1008.0 |
| 20260506061253 | 23 | 176 | 3.2 | 3.2 | 0.00 | 0.00 | 0.00 | 95 | 1008.0 |
| 20260506060751 | 23 | 168 | 1.6 | 4.8 | 0.00 | 0.00 | 0.00 | 95 | 1008.3 |
| 20260506060249 | 23 | 78 | 3.2 | 4.8 | 0.00 | 0.00 | 0.00 | 94 | 1008.4 |
| 20260506051220 | 23 | 157 | 3.2 | 4.8 | 0.00 | 0.00 | 0.00 | 95 | 1008.2 |
| 20260506050719 | 23 | 174 | 3.2 | 4.8 | 0.00 | 0.00 | 0.00 | 95 | 1008.2 |
| 20260506050215 | 23 | 105 | 3.2 | 4.8 | 0.00 | 0.00 | 0.00 | 95 | 1008.4 |
| 20260506044707 | 23 | 110 | 3.2 | 4.8 | 0.00 | 0.00 | 0.00 | 95 | 1008.4 |
| 20260506044203 | 23 | 103 | 1.6 | 3.2 | 0.00 | 0.00 | 0.00 | 95 | 1008.4 |
| 20260506043701 | 23 | 120 | 0.0 | 3.2 | 0.00 | 0.00 | 0.00 | 95 | 1008.5 |
| 20260506043159 | 23 | 120 | 0.0 | 0.0 | 0.00 | 0.00 | 0.00 | 94 | 1008.3 |
| 20260506042657 | 23 | 147 | 0.0 | 0.0 | 0.00 | 0.00 | 0.00 | 94 | 1008.3 |
| 20260506042154 | 23 | 94 | 0.0 | 0.0 | 0.00 | 0.00 | 0.00 | 94 | 1008.3 |
| 20260506041653 | 23 | 106 | 0.0 | 0.0 | 0.00 | 0.00 | 0.00 | 94 | 1008.3 |
| 20260506041149 | 23 | 146 | 3.2 | 4.8 | 0.00 | 0.00 | 0.00 | 93 | 1008.2 |
| 20260506040647 | 23 | 164 | 3.2 | 4.8 | 0.00 | 0.00 | 0.00 | 93 | 1008.0 |
| 20260506040143 | 23 | 174 | 3.2 | 3.2 | 0.00 | 0.00 | 0.00 | 93 | 1008.0 |
| 20260506035641 | 23 | 102 | 1.6 | 3.2 | 0.00 | 0.00 | 0.00 | 93 | 1008.0 |
| 20260506035137 | 23 | 212 | 4.8 | 4.8 | 0.00 | 0.00 | 0.00 | 93 | 1008.0 |
| 20260506034634 | 23 | 222 | 3.2 | 4.8 | 0.00 | 0.00 | 0.00 | 93 | 1007.9 |
| 20260506034131 | 24 | 125 | 6.4 | 9.7 | 0.00 | 0.00 | 0.00 | 93 | 1007.9 |
| 20260506033628 | 24 | 93 | 3.2 | 4.8 | 0.00 | 0.00 | 0.00 | 92 | 1007.9 |
| 20260506033125 | 24 | 112 | 1.6 | 3.2 | 0.00 | 0.00 | 0.00 | 92 | 1007.7 |
| 20260506032623 | 24 | 249 | 3.2 | 4.8 | 0.00 | 0.00 | 0.00 | 92 | 1007.5 |
| 20260506032119 | 24 | 197 | 3.2 | 4.8 | 0.00 | 0.00 | 0.00 | 92 | 1007.5 |
| 20260506031616 | 24 | 190 | 1.6 | 3.2 | 0.00 | 0.00 | 0.00 | 92 | 1007.2 |
| 20260506031113 | 24 | 194 | 4.8 | 4.8 | 0.00 | 0.00 | 0.00 | 92 | 1007.1 |
| 20260506030612 | 24 | 87 | 6.4 | 9.7 | 0.00 | 0.00 | 0.00 | 91 | 1007.3 |
| 20260506030109 | 24 | 207 | 4.8 | 8.0 | 0.00 | 0.00 | 0.00 | 91 | 1007.2 |
| 20260506025606 | 24 | 116 | 0.0 | 3.2 | 0.00 | 0.00 | 0.00 | 92 | 1007.1 |
| 20260506025101 | 24 | 257 | 1.6 | 3.2 | 0.00 | 0.00 | 0.00 | 92 | 1007.0 |
| 20260506024559 | 24 | 129 | 1.6 | 3.2 | 0.00 | 0.00 | 0.00 | 92 | 1007.1 |
| 20260506024055 | 24 | 123 | 1.6 | 3.2 | 0.00 | 0.00 | 0.00 | 92 | 1006.7 |
| 20260506023551 | 24 | 87 | 1.6 | 3.2 | 0.00 | 0.00 | 0.00 | 92 | 1006.5 |
| 20260506023049 | 24 | 94 | 0.0 | 0.0 | 0.00 | 0.00 | 0.00 | 92 | 1006.5 |
| 20260506022546 | 25 | 118 | 3.2 | 3.2 | 0.00 | 0.00 | 0.00 | 92 | 1006.5 |
| 20260506022044 | 25 | 126 | 0.0 | 3.2 | 0.00 | 0.00 | 0.00 | 92 | 1006.7 |
| 20260506021541 | 25 | 102 | 0.0 | 0.0 | 0.00 | 0.00 | 0.00 | 91 | 1006.5 |
| 20260506021038 | 25 | 110 | 1.6 | 3.2 | 0.00 | 0.00 | 0.00 | 91 | 1006.3 |
| 20260506020536 | 25 | 110 | 0.0 | 0.0 | 0.00 | 0.00 | 0.00 | 90 | 1006.2 |
| 20260506020033 | 25 | 124 | 1.6 | 3.2 | 0.00 | 0.00 | 0.00 | 90 | 1006.4 |
| 20260506015531 | 25 | 135 | 0.0 | 0.0 | 0.00 | 0.00 | 0.00 | 89 | 1006.2 |
| 20260506015028 | 25 | 155 | 1.6 | 3.2 | 0.00 | 0.00 | 0.00 | 89 | 1006.2 |
| 20260506014525 | 25 | 145 | 3.2 | 3.2 | 0.00 | 0.00 | 0.00 | 88 | 1006.3 |
| 20260506014021 | 25 | 104 | 0.0 | 0.0 | 0.00 | 0.00 | 0.00 | 88 | 1006.3 |
| 20260506013519 | 25 | 105 | 1.6 | 3.2 | 0.00 | 0.00 | 0.00 | 88 | 1006.3 |
| 20260506013016 | 25 | 101 | 0.0 | 0.0 | 0.00 | 0.00 | 0.00 | 88 | 1006.0 |
| 20260506012512 | 26 | 111 | 0.0 | 0.0 | 0.00 | 0.00 | 0.00 | 87 | 1006.0 |
| 20260506012009 | 26 | 101 | 0.0 | 0.0 | 0.00 | 0.00 | 0.00 | 87 | 1006.0 |
| 20260506011506 | 26 | 134 | 4.8 | 4.8 | 0.00 | 0.00 | 0.00 | 87 | 1006.2 |
| 20260506011002 | 26 | 109 | 0.0 | 0.0 | 0.00 | 0.00 | 0.00 | 86 | 1006.0 |
| 20260506010502 | 26 | 110 | 0.0 | 0.0 | 0.00 | 0.00 | 0.00 | 85 | 1006.3 |
| 20260506005957 | 26 | 117 | 1.6 | 3.2 | 0.00 | 0.00 | 0.00 | 85 | 1006.0 |
| 20260506005455 | 26 | 110 | 0.0 | 0.0 | 0.00 | 0.00 | 0.00 | 84 | 1006.0 |
| 20260506004950 | 27 | 102 | 0.0 | 0.0 | 0.00 | 0.00 | 0.00 | 84 | 1006.0 |
| 20260506004449 | 27 | 97 | 1.6 | 3.2 | 0.00 | 0.00 | 0.00 | 83 | 1006.2 |
| 20260506003944 | 27 | 99 | 0.0 | 0.0 | 0.00 | 0.00 | 0.00 | 83 | 1006.1 |
| 20260506003441 | 27 | 137 | 3.2 | 3.2 | 0.00 | 0.00 | 0.00 | 83 | 1006.0 |
| 20260506002937 | 27 | 113 | 0.0 | 0.0 | 0.00 | 0.00 | 0.00 | 82 | 1005.8 |
| 20260506002433 | 27 | 102 | 0.0 | 0.0 | 0.00 | 0.00 | 0.00 | 82 | 1006.1 |
| 20260506001929 | 27 | 104 | 0.0 | 0.0 | 0.00 | 0.00 | 0.00 | 82 | 1005.9 |
| 20260506001426 | 27 | 174 | 3.2 | 3.2 | 0.00 | 0.00 | 0.00 | 81 | 1005.9 |
| 20260506000923 | 27 | 125 | 1.6 | 3.2 | 0.00 | 0.00 | 0.00 | 81 | 1006.2 |
| 20260506000423 | 27 | 100 | 0.0 | 0.0 | 0.00 | 0.00 | 0.00 | 82 | 1005.9 |
| 20260505235917 | 27 | 103 | 0.0 | 0.0 | 0.00 | 0.00 | 0.00 | 81 | 1005.7 |
| 20260505235416 | 27 | 135 | 3.2 | 3.2 | 0.00 | 0.00 | 0.00 | 81 | 1005.7 |
| 20260505234912 | 27 | 67 | 0.0 | 0.0 | 0.00 | 0.00 | 0.00 | 81 | 1005.7 |
| 20260505234410 | 27 | 224 | 3.2 | 4.8 | 0.00 | 0.00 | 0.00 | 80 | 1005.5 |
| 20260505233906 | 27 | 107 | 3.2 | 3.2 | 0.00 | 0.00 | 0.00 | 80 | 1005.5 |
| 20260505233404 | 27 | 147 | 4.8 | 8.0 | 0.00 | 0.00 | 0.00 | 80 | 1005.4 |
| 20260505232901 | 27 | 131 | 3.2 | 4.8 | 0.00 | 0.00 | 0.00 | 80 | 1005.5 |
| 20260505232359 | 27 | 126 | 3.2 | 4.8 | 0.00 | 0.00 | 0.00 | 80 | 1005.2 |
| 20260505231855 | 27 | 89 | 0.0 | 3.2 | 0.00 | 0.00 | 0.00 | 80 | 1005.3 |
| 20260505231353 | 27 | 267 | 4.8 | 8.0 | 0.00 | 0.00 | 0.00 | 79 | 1005.5 |
| 20260505230851 | 27 | 102 | 1.6 | 3.2 | 0.00 | 0.00 | 0.00 | 79 | 1005.4 |
| 20260505230348 | 27 | 207 | 3.2 | 4.8 | 0.00 | 0.00 | 0.00 | 79 | 1005.3 |
| 20260505225845 | 27 | 145 | 0.0 | 3.2 | 0.00 | 0.00 | 0.00 | 79 | 1005.4 |
| 20260505225342 | 28 | 241 | 6.4 | 9.7 | 0.00 | 0.00 | 0.00 | 78 | 1005.4 |
| 20260505224837 | 28 | 72 | 1.6 | 3.2 | 0.00 | 0.00 | 0.00 | 78 | 1005.5 |
| 20260505224335 | 28 | 135 | 1.6 | 3.2 | 0.00 | 0.00 | 0.00 | 78 | 1005.3 |
| 20260505223832 | 28 | 183 | 4.8 | 8.0 | 0.00 | 0.00 | 0.00 | 78 | 1005.4 |
| 20260505223329 | 28 | 87 | 1.6 | 3.2 | 0.00 | 0.00 | 0.00 | 78 | 1005.3 |
| 20260505222825 | 28 | 220 | 8.0 | 9.7 | 0.00 | 0.00 | 0.00 | 78 | 1005.4 |
| 20260505222321 | 28 | 159 | 4.8 | 4.8 | 0.00 | 0.00 | 0.00 | 78 | 1005.5 |
| 20260505221818 | 28 | 158 | 4.8 | 8.0 | 0.00 | 0.00 | 0.00 | 78 | 1005.5 |
| 20260505221315 | 28 | 109 | 1.6 | 3.2 | 0.00 | 0.00 | 0.00 | 77 | 1005.5 |
| 20260505220812 | 28 | 200 | 8.0 | 14.5 | 0.00 | 0.00 | 0.00 | 76 | 1005.7 |
| 20260505220309 | 28 | 59 | 4.8 | 8.0 | 0.00 | 0.00 | 0.00 | 77 | 1005.8 |
| 20260505215807 | 28 | 157 | 1.6 | 3.2 | 0.00 | 0.00 | 0.00 | 77 | 1005.6 |
| 20260505215305 | 28 | 230 | 4.8 | 4.8 | 0.00 | 0.00 | 0.00 | 77 | 1006.0 |
| 20260505214802 | 28 | 227 | 8.0 | 12.9 | 0.00 | 0.00 | 0.00 | 76 | 1005.8 |
| 20260505214300 | 28 | 221 | 9.7 | 14.5 | 0.00 | 0.00 | 0.00 | 76 | 1005.7 |
| 20260505213756 | 28 | 152 | 8.0 | 14.5 | 0.00 | 0.00 | 0.00 | 76 | 1005.7 |
| 20260505213254 | 28 | 155 | 0.0 | 3.2 | 0.00 | 0.00 | 0.00 | 77 | 1005.8 |
| 20260505212749 | 28 | 132 | 0.0 | 3.2 | 0.00 | 0.00 | 0.00 | 79 | 1006.2 |
| 20260505212247 | 28 | 189 | 4.8 | 4.8 | 0.00 | 0.00 | 0.00 | 78 | 1006.1 |
| 20260505211744 | 28 | 202 | 4.8 | 8.0 | 0.00 | 0.00 | 0.00 | 79 | 1006.1 |
| 20260505211242 | 28 | 203 | 4.8 | 8.0 | 0.00 | 0.00 | 0.00 | 78 | 1006.0 |
| 20260505210737 | 27 | 88 | 3.2 | 4.8 | 0.00 | 0.00 | 0.00 | 79 | 1006.3 |
| 20260505210235 | 27 | 129 | 4.8 | 8.0 | 0.00 | 0.00 | 0.00 | 78 | 1006.5 |
| 20260505205732 | 28 | 222 | 9.7 | 12.9 | 0.00 | 0.00 | 0.00 | 78 | 1006.6 |
| 20260505205230 | 27 | 189 | 6.4 | 9.7 | 0.00 | 0.00 | 0.00 | 79 | 1006.5 |
| 20260505204726 | 27 | 176 | 6.4 | 9.7 | 0.00 | 0.00 | 0.00 | 80 | 1006.7 |
| 20260505204224 | 28 | 119 | 3.2 | 4.8 | 0.00 | 0.00 | 0.00 | 79 | 1006.6 |
| 20260505203721 | 28 | 147 | 1.6 | 3.2 | 0.00 | 0.00 | 0.00 | 79 | 1006.6 |
| 20260505203218 | 28 | 120 | 3.2 | 4.8 | 0.00 | 0.00 | 0.00 | 77 | 1006.9 |
| 20260505202714 | 28 | 257 | 1.6 | 3.2 | 0.00 | 0.00 | 0.00 | 79 | 1007.0 |
| 20260505202210 | 28 | 200 | 4.8 | 9.7 | 0.00 | 0.00 | 0.00 | 77 | 1007.0 |
| 20260505201706 | 27 | 225 | 0.0 | 3.2 | 0.00 | 0.00 | 0.00 | 80 | 1006.9 |
| 20260505201205 | 27 | 136 | 8.0 | 12.9 | 0.00 | 0.00 | 0.00 | 79 | 1007.0 |
| 20260505200702 | 27 | 152 | 3.2 | 4.8 | 0.00 | 0.00 | 0.00 | 81 | 1007.1 |
| 20260505200159 | 27 | 91 | 6.4 | 9.7 | 0.00 | 0.00 | 0.00 | 80 | 1007.2 |